Location: Killam
(52.7910°N, 111.8608°W)
Time: 12:57:05
(UTC+00:00)

ISS - Pass Details

Date: 21 January 2026
Orbit: 413 x 428 km, 51.6° (Epoch: 18 February)

Event Time Altitude Azimuth Distance (km) Brightness Sun altitude
Rises 02:07:29 0° 269° (W) 2,365 1.7 -20.0°
Reaches altitude 10° 02:09:35 10° 268° (W) 1,504 0.3 -20.4°
Enters shadow 02:12:48 71° 210° (SSW) 449 -3.6 -20.8°
